Location: Krasnoyarskiy
(51.1133°N, 71.6497°E)
Time: 21:36:42
(UTC+00:00)

Cosmos 2346 Rocket - Pass Details

Date: 27 September 2022
Orbit: 937 x 979 km, 82.9° (Epoch: 03 December)

Event Time Altitude Azimuth Distance (km) Brightness Sun altitude
Rises 00:06:44 0° 347° (NNW) 3,611 7.5 -10.2°
Reaches altitude 10° 00:09:15 10° 344° (NNW) 2,663 6.7 -9.8°
Maximum altitude 00:15:13 60° 266° (W) 1,071 4.5 -8.9°
Drops below altitude 10° 00:21:09 10° 189° (S) 2,659 6.6 -8.0°
Sets 00:23:40 0° 185° (S) 3,605 7.3 -7.6°
